When you browse on this site, cookies collect data to enhance your experience and personalize the content and advertising you see.
Visit our Privacy Policy to learn more. By continuing to use the site, you agree to this use of cookies and data.
  • în România
  • Lista ţărilor
  • Pe 7 zile
  • Temperatura apei
  • Hartă satelitară
  • Meteo pe hartă
  • Widget-uri
  • user-avatar
    Intrare

    Meteo pe oră la Zamosc

    Astăzi, 20 Iulie, Sâmbătă

    Timp Temperatura Precipitaţii Vânt Presiune Umiditate
    00:00 +16°C° 0 mm 1 m/s 736 mmHg 88%
    01:00 +16°C° 0 mm 1 m/s 736 mmHg 89%
    02:00 +15°C° 0 mm 1 m/s 736 mmHg 90%
    03:00 +16°C° 0.1 mm 1 m/s 736 mmHg 90%
    04:00 +16°C° 0.1 mm 1 m/s 736 mmHg 90%
    05:00 +15°C° 0.1 mm 0 m/s 736 mmHg 89%
    06:00 +18°C° 0 mm 1 m/s 736 mmHg 86%
    07:00 +19°C° 0 mm 1 m/s 736 mmHg 84%
    08:00 +20°C° 0 mm 1 m/s 737 mmHg 81%
    09:00 +21°C° 0 mm 1 m/s 737 mmHg 76%
    10:00 +23°C° 0 mm 2 m/s 737 mmHg 70%
    11:00 +24°C° 0 mm 2 m/s 737 mmHg 65%
    12:00 +24°C° 1.1 mm 2 m/s 737 mmHg 66%
    13:00 +25°C° 1.1 mm 3 m/s 737 mmHg 67%
    14:00 +25°C° 1.1 mm 3 m/s 737 mmHg 68%
    15:00 +25°C° 0.7 mm 3 m/s 737 mmHg 69%
    16:00 +25°C° 0.7 mm 2 m/s 737 mmHg 69%
    17:00 +25°C° 0.7 mm 2 m/s 736 mmHg 69%
    18:00 +24°C° 0.3 mm 2 m/s 736 mmHg 74%
    19:00 +23°C° 0.3 mm 1 m/s 736 mmHg 78%
    20:00 +21°C° 0.3 mm 1 m/s 736 mmHg 83%
    21:00 +20°C° 0 mm 1 m/s 737 mmHg 85%
    22:00 +20°C° 0 mm 1 m/s 737 mmHg 86%
    23:00 +19°C° 0 mm 1 m/s 737 mmHg 88%

    Mâine, 21 Iulie, Duminică

    Timp Temperatura Precipitaţii Vânt Presiune Umiditate
    00:00 +19°C° 0 mm 1 m/s 737 mmHg 88%
    01:00 +18°C° 0 mm 1 m/s 737 mmHg 89%
    02:00 +18°C° 0 mm 1 m/s 737 mmHg 89%
    03:00 +18°C° 0 mm 1 m/s 737 mmHg 89%
    04:00 +18°C° 0 mm 1 m/s 737 mmHg 89%
    05:00 +18°C° 0 mm 1 m/s 737 mmHg 89%
    06:00 +20°C° 0 mm 1 m/s 737 mmHg 85%
    07:00 +21°C° 0 mm 1 m/s 737 mmHg 82%
    08:00 +23°C° 0 mm 1 m/s 737 mmHg 78%
    09:00 +24°C° 0 mm 2 m/s 737 mmHg 73%
    10:00 +26°C° 0 mm 2 m/s 737 mmHg 67%
    11:00 +27°C° 0 mm 3 m/s 737 mmHg 62%
    12:00 +28°C° 0 mm 3 m/s 737 mmHg 59%
    13:00 +29°C° 0 mm 3 m/s 737 mmHg 57%
    14:00 +30°C° 0 mm 3 m/s 737 mmHg 54%
    15:00 +29°C° 0.7 mm 3 m/s 737 mmHg 59%
    16:00 +28°C° 0.7 mm 3 m/s 736 mmHg 64%
    17:00 +27°C° 0.7 mm 4 m/s 736 mmHg 69%
    18:00 +25°C° 8.7 mm 3 m/s 736 mmHg 77%
    19:00 +21°C° 8.7 mm 2 m/s 737 mmHg 85%
    20:00 +18°C° 8.7 mm 2 m/s 737 mmHg 93%
    21:00 +18°C° 0.2 mm 2 m/s 737 mmHg 93%
    22:00 +18°C° 0.2 mm 3 m/s 737 mmHg 93%
    23:00 +18°C° 0.2 mm 4 m/s 737 mmHg 93%

    Poimâine, 22 Iulie, Luni

    Timp Temperatura Precipitaţii Vânt Presiune Umiditate
    00:00 +18°C° 0.2 mm 4 m/s 737 mmHg 94%
    01:00 +18°C° 0.2 mm 4 m/s 737 mmHg 95%
    02:00 +17°C° 0.2 mm 4 m/s 737 mmHg 96%
    03:00 +17°C° 0 mm 4 m/s 737 mmHg 96%
    04:00 +17°C° 0 mm 4 m/s 737 mmHg 96%
    05:00 +15°C° 0 mm 4 m/s 738 mmHg 96%
    06:00 +17°C° 0 mm 4 m/s 738 mmHg 94%
    07:00 +18°C° 0 mm 4 m/s 738 mmHg 92%
    08:00 +19°C° 0 mm 4 m/s 738 mmHg 90%
    09:00 +19°C° 0.2 mm 5 m/s 739 mmHg 86%
    10:00 +20°C° 0.2 mm 5 m/s 739 mmHg 82%
    11:00 +21°C° 0.2 mm 6 m/s 739 mmHg 78%
    12:00 +21°C° 0.1 mm 6 m/s 739 mmHg 73%
    13:00 +22°C° 0.1 mm 6 m/s 739 mmHg 69%
    14:00 +22°C° 0.1 mm 6 m/s 739 mmHg 64%
    15:00 +22°C° 0 mm 6 m/s 739 mmHg 64%
    16:00 +22°C° 0 mm 6 m/s 739 mmHg 64%
    17:00 +22°C° 0 mm 6 m/s 739 mmHg 64%
    18:00 +21°C° 0 mm 5 m/s 738 mmHg 69%
    19:00 +20°C° 0 mm 4 m/s 738 mmHg 74%
    20:00 +18°C° 0 mm 3 m/s 738 mmHg 79%
    21:00 +17°C° 0 mm 3 m/s 738 mmHg 80%
    22:00 +17°C° 0 mm 3 m/s 738 mmHg 81%
    23:00 +16°C° 0 mm 3 m/s 739 mmHg 83%

    23 Iulie, Marţi

    Timp Temperatura Precipitaţii Vânt Presiune Umiditate
    00:00 +14°C° 0 mm 3 m/s 738 mmHg 85%
    01:00 +14°C° 0 mm 4 m/s 738 mmHg 87%
    02:00 +13°C° 0 mm 4 m/s 738 mmHg 88%
    03:00 +13°C° 0 mm 3 m/s 738 mmHg 90%
    04:00 +12°C° 0 mm 3 m/s 738 mmHg 91%
    05:00 +12°C° 0 mm 3 m/s 738 mmHg 92%
    06:00 +13°C° 0 mm 4 m/s 738 mmHg 87%
    07:00 +14°C° 0 mm 4 m/s 738 mmHg 82%
    08:00 +16°C° 0 mm 5 m/s 738 mmHg 77%
    09:00 +17°C° 0 mm 6 m/s 738 mmHg 74%
    10:00 +19°C° 0 mm 6 m/s 738 mmHg 70%
    11:00 +21°C° 0 mm 7 m/s 738 mmHg 67%
    12:00 +21°C° 0.2 mm 7 m/s 738 mmHg 67%
    13:00 +21°C° 0.2 mm 7 m/s 738 mmHg 67%
    14:00 +21°C° 0.2 mm 7 m/s 737 mmHg 68%
    15:00 +21°C° 0.2 mm 6 m/s 737 mmHg 72%
    16:00 +20°C° 0.2 mm 5 m/s 737 mmHg 76%
    17:00 +20°C° 0.2 mm 4 m/s 737 mmHg 80%
    18:00 +19°C° 0 mm 4 m/s 737 mmHg 82%
    19:00 +19°C° 0 mm 3 m/s 737 mmHg 84%
    20:00 +18°C° 0 mm 3 m/s 737 mmHg 86%
    21:00 +17°C° 0 mm 3 m/s 737 mmHg 88%
    22:00 +17°C° 0 mm 2 m/s 737 mmHg 90%
    23:00 +16°C° 0 mm 2 m/s 737 mmHg 92%

    24 Iulie, Miercuri

    Timp Temperatura Precipitaţii Vânt Presiune Umiditate
    00:00 +16°C° 0 mm 2 m/s 737 mmHg 93%
    01:00 +15°C° 0 mm 2 m/s 737 mmHg 94%
    02:00 +15°C° 0 mm 2 m/s 737 mmHg 95%
    03:00 +15°C° 0 mm 2 m/s 737 mmHg 95%
    04:00 +15°C° 0 mm 2 m/s 737 mmHg 96%
    05:00 +14°C° 0 mm 2 m/s 737 mmHg 96%
    06:00 +15°C° 0 mm 2 m/s 737 mmHg 94%
    07:00 +17°C° 0 mm 2 m/s 737 mmHg 92%
    08:00 +18°C° 0 mm 3 m/s 737 mmHg 90%
    09:00 +19°C° 0.2 mm 3 m/s 737 mmHg 87%
    10:00 +20°C° 0.2 mm 3 m/s 737 mmHg 84%
    11:00 +21°C° 0.2 mm 3 m/s 737 mmHg 81%
    12:00 +22°C° 0.4 mm 3 m/s 737 mmHg 78%
    13:00 +24°C° 0.4 mm 3 m/s 737 mmHg 75%
    14:00 +25°C° 0.4 mm 3 m/s 737 mmHg 71%
    15:00 +25°C° 0.2 mm 3 m/s 737 mmHg 71%
    16:00 +25°C° 0.2 mm 3 m/s 737 mmHg 71%
    17:00 +26°C° 0.2 mm 3 m/s 737 mmHg 70%
    18:00 +24°C° 0.2 mm 3 m/s 737 mmHg 76%
    19:00 +23°C° 0.2 mm 2 m/s 737 mmHg 81%
    20:00 +22°C° 0.2 mm 1 m/s 737 mmHg 87%
    21:00 +21°C° 0.1 mm 1 m/s 737 mmHg 88%
    22:00 +20°C° 0.1 mm 2 m/s 737 mmHg 90%
    23:00 +19°C° 0.1 mm 2 m/s 738 mmHg 92%

    25 Iulie, Joi

    Timp Temperatura Precipitaţii Vânt Presiune Umiditate
    00:00 +18°C° 0 mm 2 m/s 738 mmHg 92%
    01:00 +18°C° 0 mm 2 m/s 738 mmHg 93%
    02:00 +17°C° 0 mm 2 m/s 738 mmHg 94%
    03:00 +17°C° 0 mm 2 m/s 738 mmHg 94%
    04:00 +16°C° 0 mm 1 m/s 738 mmHg 94%
    05:00 +16°C° 0 mm 1 m/s 738 mmHg 93%
    06:00 +19°C° 0 mm 1 m/s 738 mmHg 89%
    07:00 +19°C° 0 mm 2 m/s 739 mmHg 85%
    08:00 +21°C° 0 mm 2 m/s 739 mmHg 81%
    09:00 +23°C° 0 mm 2 m/s 739 mmHg 75%
    10:00 +25°C° 0 mm 2 m/s 739 mmHg 69%
    11:00 +26°C° 0 mm 3 m/s 739 mmHg 63%
    12:00 +27°C° 0 mm 3 m/s 739 mmHg 60%
    13:00 +27°C° 0 mm 3 m/s 739 mmHg 57%
    14:00 +28°C° 0 mm 3 m/s 739 mmHg 54%
    15:00 +28°C° 0 mm 3 m/s 739 mmHg 56%
    16:00 +28°C° 0 mm 3 m/s 738 mmHg 57%
    17:00 +28°C° 0 mm 3 m/s 738 mmHg 59%
    18:00 +26°C° 0 mm 2 m/s 738 mmHg 64%
    19:00 +25°C° 0 mm 2 m/s 738 mmHg 70%
    20:00 +23°C° 0 mm 1 m/s 738 mmHg 75%
    21:00 +22°C° 0 mm 1 m/s 738 mmHg 77%
    22:00 +21°C° 0 mm 1 m/s 738 mmHg 79%
    23:00 +21°C° 0 mm 1 m/s 738 mmHg 81%
    Arată mai mult